Zurück zum Katalog

FREGAT DEB

LostUNKNOWN
NORAD 46258·DEBRIS·🇷🇺 Russia

Gestartet Jul 18, 2011 von Baikonur Cosmodrome

Loading…

Nächste Überflüge (nächste 24 Stunden)

TLE

VeraltetSource: Space-Track

Epoche: Aug 21, 2021, 13:35 UTC

1 46258U 11037KU  21233.56628784 -.00015210  00000-0 -12836-1 0  9996
2 46258  51.6604 305.3187 2413977 263.9791  68.3334  9.92853432 35815

Verfolge FREGAT DEB in Echtzeit mit AllMySat

Download on the App Store